Weather Roundup
Issued by NWS Corpus Christi, TX

Home | Current Version | Previous Version | Text Only | Print | Product List | Glossary On
Versions: 1 2 3 4 5 6 7 8 9 10 11 12 13 14 15 16 17 18 19 20 21 22 23 24 25 26 27 28 29 30 31 32 33 34 35 36 37 38 39 40 41 42 43 44 45 46 47 48 49 50
000
ASUS44 KCRP 291610
HRRCRP

SOUTH TEXAS REGIONAL WEATHER ROUNDUP
NATIONAL WEATHER SERVICE CORPUS CHRISTI TX
1100 AM CDT FRI JUL 29 2016


TXZ229>244-291700-
...CORPUS CHRISTI AREA OBSERVATIONS...

CITY           SKY/WX    TMP DP  RH WIND       PRES   REMARKS
CORPUS CHRISTI PTSUNNY   90  75  61 S12       30.00S HX 100
NAS CORPUS CHR PTSUNNY   88  77  69 SE10      30.01R HX 100
ROCKPORT       MOSUNNY   89  75  63 S7        30.01R HX  99
KINGSVILLE NAS MOSUNNY   90  79  70 SE8       29.99S HX 106
ALICE          MOSUNNY   92  72  51 S13       30.00S HX  99
FALFURRIAS     MOSUNNY   90  74  59 SE12      29.99F HX  99
$$

...VICTORIA AREA OBSERVATIONS...

CITY           SKY/WX    TMP DP  RH WIND       PRES   REMARKS
VICTORIA       MOSUNNY   87  73  62 SW6       30.04R HX  94
BEEVILLE       PTSUNNY   88  77  70 S3        30.02S HX 100
PLEASANTON     CLOUDY    84  73  70 SE6       30.05R HX  91
SAN ANTONIO    CLOUDY    82  73  74 S5        30.07R
$$

...LAREDO AREA OBSERVATIONS...

CITY           SKY/WX    TMP DP  RH WIND       PRES   REMARKS
LAREDO         CLOUDY    89  74  60 SE14      30.01R HAZE    HX  98
COTULLA        CLOUDY    85  75  72 S8        30.02R HX  93
DEL RIO        CLOUDY    79  73  82 SE8       30.04R
MCALLEN        SUNNY     93  73  52 S10G21    29.97F HX 102
HEBBRONVILLE   MOSUNNY   87  72  61 SE12G18   30.02S HX  94
$$

...OTHER TEXAS OBSERVATIONS...

CITY           SKY/WX    TMP DP  RH WIND       PRES   REMARKS
BROWNSVILLE    MOSUNNY   92  73  53 SE8       29.98S HX 100
HOUSTON        PTSUNNY   88  75  65 W7        30.06R HX  97
COL. STATION   CLOUDY    85  77  77 SW8       30.07S HX  95
AUSTIN         PTSUNNY   87  74  64 W6        30.06R HX  95
WACO           CLOUDY    85  72  65 S5        30.07R HX  91
FORT WORTH     MOSUNNY   88  70  55 SW9       30.02S HX  93
WICHITA FALLS  MOSUNNY   84  63  49 NE21G26   30.08R
LUBBOCK        MOSUNNY   85  62  46 SE7       30.13R
EL PASO        MOSUNNY   85  57  38 NE3       30.10S
$$

...MARINE OBSERVATIONS...

STATION/POSITION TIME  SKY/WX   TEMP    WIND        PRES    VSBY  WAVE   SWELL
                                AIR SEA DIR/SP/G                  HT/PER HT/PER
                 (UTC)          (F)     (DEG/KT/KT) (MB)    (MI)  (FT/S) (FT/S)
PORT ARANSAS     1600            85 87  150/  9/  9 1016.6R
BUOY 90 E PORT A 1550            85 86  150/  8/ 10 1016.9R         3/ 6   2/ 6
BUOY 45 SE BAFFI 1550            85 85  160/ 10/ 12 1015.6R         3/ 6   2/ 6
BUOY 200 E PT IS 1550            86 87  140/  4/  6 1016.8R         2/ 6   2/ 6
BUOY 15 E GALVES 1550            86 86  220/  4/  6 1017.7R         2/ 5   2/ 5
$$



USA.gov is the U.S. government's official web portal to all federal, state and local government web resources and services.